G0UBK Weather Reports


time (UTC)temp
C
wind
direction
speed
KPH
gust
KPH
rain 1hr
cm
rain 24hr
cm
rain mn
cm
humidity
%
barometer
mb
20260508100047 15 239 3.2 9.7 0.00 0.00 0.00 71 1017.6
20260508094551 15 248 1.6 9.7 0.00 0.00 0.00 68 1017.5
20260508093055 15 254 1.6 9.7 0.00 0.00 0.00 68 1017.5
20260508091558 15 192 3.2 8.0 0.00 0.00 0.00 67 1017.6
20260508090059 16 172 3.2 9.7 0.00 0.00 0.00 67 1017.4
20260508084553 15 180 0.0 8.0 0.00 0.00 0.00 70 1017.5
20260508083058 14 0.0 0.0 0.00 0.00 0.00 72 1017.5
20260508081608 13 223 3.2 3.2 0.00 0.00 0.00 74 1017.5
20260508080051 13 111 4.8 11.3 0.00 0.00 0.00 74 1017.3
20260508074551 13 148 3.2 12.9 0.00 0.00 0.00 76 1017.1
20260508073100 11 119 3.2 9.7 0.00 0.00 0.00 80 1017.0
20260508071607 10 113 1.6 6.4 0.00 0.00 0.00 82 1017.1
20260508070100 10 117 1.6 6.4 0.00 0.00 0.00 82 1016.8
20260508064550 10 233 1.6 8.0 0.00 0.00 0.00 83 1016.8
20260508063046 9 232 1.6 6.4 0.00 0.00 0.00 84 1016.5
20260508061547 9 155 0.0 4.8 0.00 0.00 0.00 84 1016.4
20260508060045 9 164 1.6 12.9 0.00 0.00 0.00 84 1016.2
20260508054551 9 127 3.2 12.9 0.00 0.00 0.00 84 1016.1
20260508053052 8 219 4.8 16.1 0.00 0.00 0.00 84 1016.0
20260508051550 8 153 4.8 12.9 0.00 0.00 0.00 84 1015.8
20260508050047 8 149 4.8 12.9 0.00 0.00 0.00 84 1015.7
20260508044551 8 221 4.8 14.5 0.00 0.00 0.00 84 1015.8
20260508043050 8 162 4.8 16.1 0.00 0.00 0.00 84 1015.7
20260508041548 8 132 1.6 14.5 0.00 0.00 0.00 83 1015.6
20260508040057 9 216 3.2 12.9 0.00 0.00 0.00 83 1015.7
20260508034548 9 186 4.8 16.1 0.00 0.00 0.00 83 1015.5
20260508033110 9 216 4.8 19.3 0.00 0.00 0.00 83 1015.5
20260508031552 9 248 1.6 12.9 0.00 0.00 0.00 82 1015.6
20260508030101 9 113 1.6 16.1 0.00 0.00 0.00 82 1015.5
20260508024610 9 131 3.2 16.1 0.00 0.00 0.00 82 1015.5
20260508023051 9 243 4.8 16.1 0.00 0.00 0.00 82 1015.6
20260508021545 9 135 3.2 9.7 0.00 0.00 0.00 83 1015.6
20260508020103 9 122 1.6 8.0 0.00 0.00 0.00 84 1015.6
20260508014554 9 0 1.6 8.0 0.00 0.00 0.00 84 1015.6
20260508013104 9 197 1.6 9.7 0.00 0.00 0.00 82 1015.6
20260508011547 10 243 4.8 11.3 0.00 0.00 0.00 80 1015.7
20260508010059 10 162 4.8 16.1 0.00 0.00 0.00 80 1015.5
20260508004548 10 193 6.4 20.9 0.00 0.00 0.00 80 1015.4
20260508003046 10 223 4.8 16.1 0.00 0.00 0.00 80 1015.4
20260508001556 10 121 4.8 19.3 0.00 0.00 0.00 80 1015.4
20260508000056 10 157 4.8 17.7 0.00 0.00 0.00 79 1015.6
20260507234551 10 160 3.2 17.7 0.00 0.00 0.00 79 1015.7
20260507233051 10 218 3.2 16.1 0.00 0.00 0.00 79 1015.7
20260507231548 10 241 4.8 14.5 0.00 0.00 0.00 80 1015.6
20260507230055 9 100 0.0 6.4 0.00 0.00 0.00 80 1015.7
20260507224552 9 231 0.0 9.7 0.00 0.00 0.00 79 1015.7
20260507223053 9 196 4.8 11.3 0.00 0.00 0.00 78 1015.7
20260507221548 9 157 3.2 16.1 0.00 0.00 0.00 78 1015.8
20260507220048 9 188 3.2 11.3 0.00 0.00 0.00 79 1015.8
20260507214550 9 68 3.2 12.9 0.00 0.00 0.00 78 1015.8
20260507213056 9 212 1.6 12.9 0.00 0.00 0.00 77 1015.9
20260507211554 10 98 6.4 14.5 0.00 0.00 0.00 77 1015.9
20260507210054 10 131 4.8 16.1 0.00 0.00 0.00 75 1015.9
20260507204550 10 122 4.8 12.9 0.00 0.00 0.00 76 1015.9
20260507203053 10 137 8.0 16.1 0.00 0.00 0.00 78 1015.7
20260507201555 10 130 4.8 12.9 0.00 0.00 0.00 79 1015.7
20260507200055 10 72 3.2 11.3 0.00 0.00 0.00 81 1015.7
20260507194549 10 0 3.2 8.0 0.00 0.00 0.00 81 1015.6
20260507193049 10 103 1.6 6.4 0.00 0.00 0.00 81 1015.6
20260507191556 10 122 1.6 8.0 0.00 0.00 0.00 81 1015.5
20260507190051 10 130 1.6 9.7 0.00 0.00 0.00 80 1015.4
20260507184556 10 131 3.2 9.7 0.00 0.00 0.00 78 1015.4
20260507183055 11 120 0.0 9.7 0.00 0.00 0.00 77 1015.4
20260507181546 12 0 1.6 12.9 0.00 0.00 0.00 75 1015.3
20260507180057 12 83 1.6 9.7 0.00 0.00 0.00 74 1015.3
20260507174549 12 169 1.6 9.7 0.00 0.00 0.00 75 1015.4
20260507173058 12 98 3.2 12.9 0.00 0.00 0.00 73 1015.4
20260507171552 12 94 3.2 12.9 0.00 0.00 0.00 72 1015.4
20260507170057 12 161 3.2 11.3 0.00 0.00 0.00 72 1015.4
20260507164551 12 114 3.2 16.1 0.00 0.00 0.00 74 1015.5
20260507163056 11 127 1.6 9.7 0.00 0.00 0.00 78 1015.5
20260507161557 11 173 3.2 12.9 0.00 0.00 0.00 78 1015.5
20260507160050 11 89 3.2 17.7 0.00 0.00 0.00 78 1015.5
20260507154555 11 115 1.6 11.3 0.00 0.00 0.00 75 1015.6
20260507153102 12 116 1.6 14.5 0.00 0.00 0.00 65 1015.6
20260507151552 12 115 4.8 14.5 0.00 0.00 0.00 62 1015.5
20260507150105 12 98 3.2 19.3 0.00 0.00 0.00 62 1015.6
20260507144549 13 233 4.8 12.9 0.00 0.00 0.00 62 1015.7
20260507143103 13 217 3.2 17.7 0.00 0.00 0.00 62 1015.7
20260507141557 13 237 4.8 12.9 0.00 0.00 0.00 62 1015.7
20260507140101 13 162 4.8 8.0 0.00 0.00 0.00 60 1015.8
20260507134553 13 319 3.2 12.9 0.00 0.00 0.00 60 1015.8
20260507133051 14 274 1.6 12.9 0.00 0.00 0.00 61 1015.8
20260507131551 14 118 3.2 12.9 0.00 0.00 0.00 59 1015.8
20260507124552 14 160 0.0 0.0 0.00 0.00 0.00 61 1015.7
20260507123049 13 123 14.5 0.0 0.00 0.00 0.00 60 1015.6
20260507121554 13 136 4.8 14.5 0.00 0.00 0.00 59 1015.6
20260507120056 12 160 4.8 16.1 0.00 0.00 0.00 64 1015.8
20260507114551 12 96 4.8 16.1 0.00 0.00 0.00 64 1016.0
20260507113052 11 101 8.0 16.1 0.00 0.00 0.00 65 1016.1
20260507111551 11 122 4.8 14.5 0.00 0.00 0.00 66 1016.3
20260507110059 12 138 4.8 0.0 0.00 0.00 0.00 66 1016.4
20260507104555 12 0.0 0.0 0.00 0.00 0.00 65 1016.4
20260507103115 12 0.0 0.0 0.00 0.00 0.00 66 1016.5
20260507101553 11 226 9.7 0.0 0.00 0.00 0.00 66 1016.4